DAL1054 KSTL-KORD

Flight info

Callsign DAL1054
Flight time 1h 14m
Altitude 31000
Route KSHEE5 LEBOY CASHN TRTLL6
Aircraft B738/M-SDE2E3FGHIRWXY/LB1

Departure

Time 2026-04-30 20:55
Airport St. Louis Lambert International Airport (KSTL)

Arrival

Time 2026-04-30 22:09
Airport Chicago O'Hare International Airport (KORD)
Time Latitude Longitude Altitude Speed Heading
2026-04-30 20:25 38.74240 -90.36164 550 ft 0 kts 213°
2026-04-30 20:28 38.74212 -90.36127 550 ft 0 kts 226°
2026-04-30 20:43 38.74189 -90.36266 550 ft 0 kts
2026-04-30 20:46 38.74150 -90.36275 562 ft 4 kts 19°
2026-04-30 20:46 38.74126 -90.36290 563 ft 4 kts 38°
2026-04-30 20:47 38.74110 -90.36316 563 ft 1 kts 77°
2026-04-30 20:49 38.74111 -90.36314 562 ft 2 kts 77°
2026-04-30 20:50 38.74071 -90.36177 558 ft 13 kts 124°
2026-04-30 20:50 38.74016 -90.36066 554 ft 17 kts 122°
2026-04-30 20:50 38.73963 -90.35936 556 ft 16 kts 90°
2026-04-30 20:50 38.74044 -90.35850 555 ft 17 kts 31°
2026-04-30 20:51 38.74115 -90.35766 553 ft 14 kts 88°
2026-04-30 20:51 38.73982 -90.35489 563 ft 21 kts 122°
2026-04-30 20:51 38.73900 -90.35323 563 ft 23 kts 122°
2026-04-30 20:52 38.73824 -90.35169 568 ft 18 kts 122°
2026-04-30 20:52 38.73757 -90.35034 572 ft 18 kts 122°
2026-04-30 20:52 38.73654 -90.34786 576 ft 10 kts 79°
2026-04-30 20:53 38.73705 -90.34725 574 ft 10 kts 31°
2026-04-30 20:53 38.73768 -90.34682 570 ft 10 kts 12°
2026-04-30 20:53 38.73817 -90.34729 570 ft 7 kts 302°
2026-04-30 20:54 38.73853 -90.34803 575 ft 21 kts 302°
2026-04-30 20:54 38.74033 -90.35167 564 ft 94 kts 302°
2026-04-30 20:54 38.74549 -90.36210 569 ft 180 kts 303°
2026-04-30 20:55 38.76212 -90.39425 1941 ft 242 kts 308°
2026-04-30 20:55 38.77504 -90.40831 2967 ft 254 kts 327°
2026-04-30 20:55 38.79164 -90.41707 3995 ft 260 kts 343°
2026-04-30 20:56 38.82665 -90.42648 5649 ft 266 kts 346°
2026-04-30 20:56 38.84547 -90.42626 6552 ft 274 kts
2026-04-30 20:56 38.88272 -90.42095 8725 ft 271 kts 359°
2026-04-30 20:57 38.90179 -90.42023 9853 ft 271 kts 355°
2026-04-30 20:57 38.92080 -90.42029 10662 ft 281 kts 354°
2026-04-30 20:57 38.93422 -90.42058 10817 ft 300 kts 354°
2026-04-30 20:58 38.98681 -90.42404 11765 ft 340 kts 345°
2026-04-30 20:58 39.00991 -90.43128 12469 ft 346 kts 341°
2026-04-30 20:58 39.03335 -90.43936 13239 ft 351 kts 340°
2026-04-30 20:58 39.05701 -90.44757 14065 ft 355 kts 340°
2026-04-30 20:59 39.09569 -90.46082 15337 ft 359 kts 340°
2026-04-30 21:00 39.11638 -90.46784 15985 ft 361 kts 340°
2026-04-30 21:01 39.14275 -90.47674 16839 ft 364 kts 339°
2026-04-30 21:01 39.16763 -90.48511 17543 ft 369 kts 339°
2026-04-30 21:01 39.20591 -90.49799 18575 ft 376 kts 339°
2026-04-30 21:02 39.22791 -90.50539 19123 ft 379 kts 339°
2026-04-30 21:02 39.25346 -90.51397 19769 ft 381 kts 339°
2026-04-30 21:02 39.27888 -90.52251 20424 ft 383 kts 338°
2026-04-30 21:02 39.30479 -90.53122 21055 ft 386 kts 338°
2026-04-30 21:03 39.33090 -90.54003 21605 ft 391 kts 338°
2026-04-30 21:03 39.35737 -90.54897 22188 ft 395 kts 338°
2026-04-30 21:03 39.38426 -90.55777 22686 ft 401 kts 338°
2026-04-30 21:03 39.41206 -90.56401 23226 ft 415 kts 349°
2026-04-30 21:04 39.44143 -90.56203 23794 ft 429 kts
2026-04-30 21:04 39.47094 -90.55232 24225 ft 448 kts 13°
2026-04-30 21:04 39.52825 -90.51870 25113 ft 458 kts 17°
2026-04-30 21:05 39.55714 -90.50074 25538 ft 462 kts 17°
2026-04-30 21:05 39.58626 -90.48277 25988 ft 465 kts 16°
2026-04-30 21:05 39.61565 -90.46487 26326 ft 469 kts 16°
2026-04-30 21:05 39.64535 -90.44698 26723 ft 472 kts 15°
2026-04-30 21:06 39.67522 -90.42910 27129 ft 474 kts 15°
2026-04-30 21:06 39.70528 -90.41117 27515 ft 477 kts 15°
2026-04-30 21:06 39.73553 -90.39313 27889 ft 480 kts 15°
2026-04-30 21:06 39.76603 -90.37491 28252 ft 483 kts 15°
2026-04-30 21:07 39.79661 -90.35661 28637 ft 485 kts 15°
2026-04-30 21:07 39.82732 -90.33820 29078 ft 486 kts 15°
2026-04-30 21:07 39.85808 -90.31970 29574 ft 486 kts 15°
2026-04-30 21:07 39.88862 -90.30133 30115 ft 484 kts 15°
2026-04-30 21:08 39.91919 -90.28295 30531 ft 483 kts 14°
2026-04-30 21:08 39.94924 -90.26415 30892 ft 489 kts 19°
2026-04-30 21:08 39.97835 -90.24001 31026 ft 506 kts 28°
2026-04-30 21:08 40.00561 -90.21052 31056 ft 511 kts 32°
2026-04-30 21:09 40.05833 -90.14928 31051 ft 503 kts 33°
2026-04-30 21:09 40.11051 -90.08906 31081 ft 501 kts 32°
2026-04-30 21:10 40.16350 -90.02923 31066 ft 504 kts 32°
2026-04-30 21:10 40.21680 -89.96922 31074 ft 506 kts 32°
2026-04-30 21:11 40.27011 -89.90893 31094 ft 507 kts 32°
2026-04-30 21:11 40.32305 -89.84886 31061 ft 505 kts 32°
2026-04-30 21:12 40.37595 -89.78875 31048 ft 502 kts 32°
2026-04-30 21:12 40.42855 -89.72880 31047 ft 499 kts 32°
2026-04-30 21:13 40.48086 -89.66906 31081 ft 497 kts 33°
2026-04-30 21:13 40.53297 -89.60943 31056 ft 496 kts 33°
2026-04-30 21:14 40.58494 -89.54983 31049 ft 495 kts 33°
2026-04-30 21:14 40.63659 -89.49046 31043 ft 492 kts 33°
2026-04-30 21:15 40.66194 -89.46115 31028 ft 475 kts 33°
2026-04-30 21:15 40.68632 -89.43296 31030 ft 459 kts 32°
2026-04-30 21:15 40.71003 -89.40560 31031 ft 445 kts 32°
2026-04-30 21:15 40.73299 -89.37908 31033 ft 431 kts 31°
2026-04-30 21:16 40.75512 -89.35325 31033 ft 419 kts 32°
2026-04-30 21:16 40.77658 -89.32775 30749 ft 415 kts 32°
2026-04-30 21:16 40.79834 -89.30191 29890 ft 427 kts 33°
2026-04-30 21:16 40.82083 -89.27524 28732 ft 441 kts 33°
2026-04-30 21:17 40.84410 -89.24761 27436 ft 457 kts 33°
2026-04-30 21:17 40.86814 -89.21900 26106 ft 473 kts 33°
2026-04-30 21:17 40.89284 -89.18947 24946 ft 483 kts 33°
2026-04-30 21:17 40.91738 -89.15995 24235 ft 482 kts 34°
2026-04-30 21:18 40.94197 -89.13025 23720 ft 474 kts 34°
2026-04-30 21:18 40.96618 -89.10100 23093 ft 467 kts 34°
2026-04-30 21:18 40.99006 -89.07221 22419 ft 461 kts 34°
2026-04-30 21:18 41.01362 -89.04387 21753 ft 455 kts 35°
2026-04-30 21:19 41.03693 -89.01584 21111 ft 450 kts 35°
2026-04-30 21:19 41.05927 -88.98897 20518 ft 444 kts 36°
2026-04-30 21:19 41.08203 -88.96155 19907 ft 439 kts 36°
2026-04-30 21:19 41.10456 -88.93439 19316 ft 434 kts 36°
2026-04-30 21:20 41.12501 -88.90971 18783 ft 430 kts 37°
2026-04-30 21:20 41.14677 -88.88342 18202 ft 425 kts 37°
2026-04-30 21:20 41.16852 -88.85712 17536 ft 421 kts 37°
2026-04-30 21:20 41.19011 -88.83097 16892 ft 417 kts 37°
2026-04-30 21:21 41.21143 -88.80513 16257 ft 413 kts 37°
2026-04-30 21:21 41.23255 -88.77952 15620 ft 410 kts 37°
2026-04-30 21:21 41.27400 -88.72920 14446 ft 402 kts 38°
2026-04-30 21:22 41.29454 -88.70423 13860 ft 398 kts 38°
2026-04-30 21:22 41.35526 -88.63030 11938 ft 389 kts 39°
2026-04-30 21:23 41.37514 -88.60608 11350 ft 385 kts 39°
2026-04-30 21:23 41.39476 -88.58261 11118 ft 372 kts 38°
2026-04-30 21:23 41.43218 -88.53831 11004 ft 368 kts 38°
2026-04-30 21:24 41.45190 -88.51507 10931 ft 383 kts 38°
2026-04-30 21:24 41.46718 -88.49697 10905 ft 386 kts 38°
2026-04-30 21:24 41.48722 -88.47315 10861 ft 384 kts 38°
2026-04-30 21:24 41.50711 -88.44942 10831 ft 383 kts 39°
2026-04-30 21:25 41.54682 -88.40203 10771 ft 382 kts 39°
2026-04-30 21:25 41.56660 -88.37839 10763 ft 381 kts 39°
2026-04-30 21:25 41.58632 -88.35482 10730 ft 380 kts 39°
2026-04-30 21:26 41.62545 -88.30804 10676 ft 378 kts 39°
2026-04-30 21:26 41.64513 -88.28462 10633 ft 378 kts 39°
2026-04-30 21:27 41.68443 -88.23791 10591 ft 378 kts 39°
2026-04-30 21:27 41.70408 -88.21452 10568 ft 378 kts 39°
2026-04-30 21:27 41.72373 -88.19109 10531 ft 378 kts 39°
2026-04-30 21:28 41.76301 -88.14417 10481 ft 378 kts 39°
2026-04-30 21:28 41.78267 -88.12067 10469 ft 378 kts 39°
2026-04-30 21:28 41.82149 -88.07319 10419 ft 379 kts 42°
2026-04-30 21:29 41.84016 -88.04814 10378 ft 379 kts 43°
2026-04-30 21:29 41.88371 -87.96302 10301 ft 384 kts 78°
2026-04-30 21:30 41.88493 -87.89169 10261 ft 383 kts 92°
2026-04-30 21:31 41.88427 -87.78475 10113 ft 371 kts 91°
2026-04-30 21:31 41.88424 -87.71869 9999 ft 339 kts 91°
2026-04-30 21:32 41.88416 -87.65816 9995 ft 310 kts 91°
2026-04-30 21:32 41.88410 -87.62978 10003 ft 300 kts 91°
2026-04-30 21:32 41.88403 -87.60154 10026 ft 311 kts 91°
2026-04-30 21:32 41.88395 -87.57212 10022 ft 315 kts 91°
2026-04-30 21:33 41.88388 -87.54313 10006 ft 307 kts 91°
2026-04-30 21:33 41.88375 -87.48791 10010 ft 293 kts 89°
2026-04-30 21:33 41.88849 -87.46134 10015 ft 297 kts 58°
2026-04-30 21:34 41.90212 -87.44094 10025 ft 295 kts 30°
2026-04-30 21:34 41.93961 -87.43227 10017 ft 266 kts 337°
2026-04-30 21:34 41.95521 -87.44330 10012 ft 243 kts 314°
2026-04-30 21:35 41.96561 -87.45982 10021 ft 224 kts 296°
2026-04-30 21:35 41.97181 -87.47824 10001 ft 208 kts 283°
2026-04-30 21:35 41.97357 -87.49678 10024 ft 196 kts 269°
2026-04-30 21:35 41.97327 -87.51499 10018 ft 195 kts 267°
2026-04-30 21:36 41.97270 -87.53338 10033 ft 200 kts 267°
2026-04-30 21:36 41.97207 -87.55237 10032 ft 205 kts 267°
2026-04-30 21:37 41.97019 -87.60909 10015 ft 201 kts 267°
2026-04-30 21:37 41.96957 -87.62791 10016 ft 201 kts 267°
2026-04-30 21:37 41.96896 -87.64658 10012 ft 200 kts 267°
2026-04-30 21:37 41.96834 -87.66527 10019 ft 200 kts 267°
2026-04-30 21:38 41.96772 -87.68398 10018 ft 201 kts 267°
2026-04-30 21:38 41.96710 -87.70277 10010 ft 202 kts 267°
2026-04-30 21:38 41.96647 -87.72173 10001 ft 206 kts 266°
2026-04-30 21:38 41.96582 -87.74117 10013 ft 210 kts 266°
2026-04-30 21:39 41.96517 -87.76075 9989 ft 210 kts 266°
2026-04-30 21:39 41.96451 -87.78037 9993 ft 209 kts 266°
2026-04-30 21:39 41.96387 -87.79951 9994 ft 208 kts 266°
2026-04-30 21:39 41.96321 -87.81885 9997 ft 207 kts 266°
2026-04-30 21:40 41.96256 -87.83819 10001 ft 207 kts 266°
2026-04-30 21:40 41.96190 -87.85757 10002 ft 208 kts 266°
2026-04-30 21:40 41.96123 -87.87696 10009 ft 208 kts 266°
2026-04-30 21:40 41.96056 -87.89641 10008 ft 209 kts 266°
2026-04-30 21:41 41.95988 -87.91608 10001 ft 210 kts 266°
2026-04-30 21:41 41.95920 -87.93575 10012 ft 212 kts 266°
2026-04-30 21:41 41.95850 -87.95556 9999 ft 213 kts 266°
2026-04-30 21:41 41.95780 -87.97547 10001 ft 213 kts 266°
2026-04-30 21:42 41.95710 -87.99538 10001 ft 214 kts 266°
2026-04-30 21:42 41.95640 -88.01518 9993 ft 213 kts 266°
2026-04-30 21:42 41.95569 -88.03505 9997 ft 212 kts 266°
2026-04-30 21:42 41.95498 -88.05482 9994 ft 211 kts 266°
2026-04-30 21:43 41.95427 -88.07448 9991 ft 210 kts 266°
2026-04-30 21:43 41.95379 -88.08771 9995 ft 209 kts 266°
2026-04-30 21:43 41.95284 -88.11343 9994 ft 207 kts 267°
2026-04-30 21:43 41.95215 -88.13275 9991 ft 207 kts 267°
2026-04-30 21:44 41.95144 -88.15217 9997 ft 208 kts 267°
2026-04-30 21:44 41.95072 -88.17157 9992 ft 209 kts 267°
2026-04-30 21:44 41.95000 -88.19109 9995 ft 209 kts 267°
2026-04-30 21:44 41.94928 -88.21063 9990 ft 210 kts 267°
2026-04-30 21:45 41.94854 -88.23029 9994 ft 210 kts 267°
2026-04-30 21:45 41.94781 -88.24998 10003 ft 212 kts 267°
2026-04-30 21:45 41.94706 -88.26979 9998 ft 213 kts 267°
2026-04-30 21:45 41.94631 -88.28944 9992 ft 214 kts 267°
2026-04-30 21:46 41.94555 -88.30943 9990 ft 214 kts 267°
2026-04-30 21:46 41.94479 -88.32951 9995 ft 214 kts 267°
2026-04-30 21:46 41.94402 -88.34947 9988 ft 214 kts 267°
2026-04-30 21:46 41.94351 -88.36272 9988 ft 214 kts 267°
2026-04-30 21:47 41.94274 -88.38261 9991 ft 213 kts 267°
2026-04-30 21:47 41.94171 -88.40915 9998 ft 212 kts 267°
2026-04-30 21:47 41.94120 -88.42227 9990 ft 211 kts 267°
2026-04-30 21:47 41.94042 -88.44198 9980 ft 211 kts 267°
2026-04-30 21:48 41.93966 -88.46155 9986 ft 209 kts 267°
2026-04-30 21:48 41.93889 -88.48106 9986 ft 208 kts 267°
2026-04-30 21:48 41.93812 -88.50050 10001 ft 208 kts 267°
2026-04-30 21:48 41.93735 -88.51986 10002 ft 208 kts 267°
2026-04-30 21:49 41.93657 -88.53921 10004 ft 207 kts 267°
2026-04-30 21:49 41.93579 -88.55860 10008 ft 208 kts 268°
2026-04-30 21:49 41.93658 -88.57798 9983 ft 210 kts 288°
2026-04-30 21:49 41.94470 -88.59413 10007 ft 214 kts 316°
2026-04-30 21:50 41.95805 -88.60294 10001 ft 224 kts 345°
2026-04-30 21:50 41.97383 -88.60118 9991 ft 236 kts 18°
2026-04-30 21:50 41.98677 -88.58718 9991 ft 247 kts 57°
2026-04-30 21:50 41.99243 -88.56538 10020 ft 249 kts 75°
2026-04-30 21:51 41.99635 -88.54243 10013 ft 253 kts 75°
2026-04-30 21:51 42.00027 -88.51935 10008 ft 256 kts 78°
2026-04-30 21:51 42.00243 -88.49552 9922 ft 259 kts 84°
2026-04-30 21:51 42.00389 -88.47054 9338 ft 276 kts 86°
2026-04-30 21:52 42.00676 -88.44494 9059 ft 276 kts 67°
2026-04-30 21:52 42.01772 -88.42553 8976 ft 258 kts 30°
2026-04-30 21:52 42.03400 -88.41816 8736 ft 244 kts 358°
2026-04-30 21:52 42.05080 -88.41426 8283 ft 257 kts 24°
2026-04-30 21:53 42.06358 -88.39692 8089 ft 267 kts 61°
2026-04-30 21:53 42.06860 -88.37320 7836 ft 271 kts 89°
2026-04-30 21:53 42.06468 -88.34805 7352 ft 276 kts 118°
2026-04-30 21:53 42.05472 -88.32674 7037 ft 274 kts 128°
2026-04-30 21:54 42.04334 -88.30626 6785 ft 273 kts 129°
2026-04-30 21:54 42.03195 -88.28578 6522 ft 272 kts 129°
2026-04-30 21:54 42.02075 -88.26532 6287 ft 270 kts 128°
2026-04-30 21:54 42.00989 -88.24530 6093 ft 266 kts 127°
2026-04-30 21:55 42.00244 -88.22294 5982 ft 262 kts 97°
2026-04-30 21:55 42.00233 -88.19905 5990 ft 250 kts 87°
2026-04-30 21:55 42.00301 -88.17612 5960 ft 239 kts 89°
2026-04-30 21:55 42.00318 -88.15393 5778 ft 236 kts 90°
2026-04-30 21:56 42.00313 -88.13233 5652 ft 229 kts 90°
2026-04-30 21:56 42.00307 -88.11156 5611 ft 216 kts 90°
2026-04-30 21:56 42.00302 -88.09181 5547 ft 206 kts 90°
2026-04-30 21:56 42.00298 -88.07288 5399 ft 200 kts 91°
2026-04-30 21:57 42.00296 -88.05421 5159 ft 195 kts 91°
2026-04-30 21:57 42.00294 -88.03685 5016 ft 177 kts 91°
2026-04-30 21:57 42.00292 -88.02080 4725 ft 170 kts 91°
2026-04-30 21:57 42.00289 -88.00500 4363 ft 168 kts 91°
2026-04-30 21:58 42.00287 -87.98939 4018 ft 165 kts 91°
2026-04-30 21:58 42.00186 -87.97424 3643 ft 161 kts 113°
2026-04-30 21:58 41.99472 -87.96387 3259 ft 151 kts 162°
2026-04-30 21:58 41.98474 -87.96186 2839 ft 146 kts 177°
2026-04-30 21:59 41.97461 -87.96032 2389 ft 145 kts 176°
2026-04-30 21:59 41.96469 -87.95895 2025 ft 145 kts 177°
2026-04-30 21:59 41.95449 -87.95724 2012 ft 149 kts 176°
2026-04-30 22:00 41.93896 -87.96873 2017 ft 138 kts 250°
2026-04-30 22:00 41.93120 -87.99222 2002 ft 135 kts 246°
2026-04-30 22:00 41.92723 -88.00390 2002 ft 139 kts 246°
2026-04-30 22:01 41.92335 -88.01587 2011 ft 140 kts 255°
2026-04-30 22:01 41.92380 -88.02865 2022 ft 138 kts 280°
2026-04-30 22:01 41.92504 -88.04159 2019 ft 140 kts 276°
2026-04-30 22:01 41.92614 -88.05462 2011 ft 143 kts 276°
2026-04-30 22:02 41.92736 -88.06785 2000 ft 142 kts 276°
2026-04-30 22:02 41.92862 -88.08101 1990 ft 141 kts 276°
2026-04-30 22:02 41.92977 -88.09392 2016 ft 138 kts 276°
2026-04-30 22:02 41.93085 -88.10613 2003 ft 127 kts 276°
2026-04-30 22:03 41.93195 -88.11796 1999 ft 129 kts 276°
2026-04-30 22:03 41.93315 -88.12993 1998 ft 129 kts 276°
2026-04-30 22:03 41.93579 -88.14149 1968 ft 135 kts 305°
2026-04-30 22:03 41.94436 -88.14684 1999 ft 146 kts 349°
2026-04-30 22:04 41.95441 -88.14767 1992 ft 149 kts 352°
2026-04-30 22:04 41.96490 -88.14715 2007 ft 152 kts 356°
2026-04-30 22:04 41.98568 -88.14613 1978 ft 143 kts 357°
2026-04-30 22:05 41.99549 -88.14325 1977 ft 152 kts 33°
2026-04-30 22:05 41.99964 -88.13067 1992 ft 156 kts 96°
2026-04-30 22:05 41.99547 -88.11701 2025 ft 162 kts 115°
2026-04-30 22:05 41.99468 -88.10229 2020 ft 159 kts 77°
2026-04-30 22:06 41.99526 -88.08737 2017 ft 157 kts 92°
2026-04-30 22:06 41.99571 -88.05971 1994 ft 147 kts 87°
2026-04-30 22:06 41.99622 -88.05005 2003 ft 148 kts 86°
2026-04-30 22:07 41.99818 -88.03627 2004 ft 150 kts 76°
2026-04-30 22:07 41.99971 -88.02244 1996 ft 149 kts 91°
2026-04-30 22:07 41.99985 -88.00848 1966 ft 152 kts 86°
2026-04-30 22:07 42.00108 -87.99448 1881 ft 152 kts 83°
2026-04-30 22:08 42.00221 -87.98060 1713 ft 147 kts 86°
2026-04-30 22:08 42.00274 -87.96702 1487 ft 141 kts 89°
2026-04-30 22:08 42.00282 -87.95397 1215 ft 139 kts 90°
2026-04-30 22:08 42.00285 -87.94107 948 ft 137 kts 90°
2026-04-30 22:09 42.00287 -87.92848 735 ft 134 kts 90°
2026-04-30 22:09 42.00282 -87.91607 672 ft 131 kts 88°
2026-04-30 22:09 42.00285 -87.90515 675 ft 92 kts 90°
2026-04-30 22:09 42.00226 -87.90139 671 ft 26 kts 120°
2026-04-30 22:10 42.00198 -87.90079 670 ft 0 kts 125°
2026-04-30 22:10 42.00196 -87.90075 670 ft 1 kts 125°